SCP
0 0 0 0 0 0 0 0 0 0 0 0 0 0 0 0 0 0 0 0 1 1 1 1 1 0 0 0 0 0 0 0 0 0 0 0 0 0 0 0 0 0 0 0 0 0 0 0 0
0 0 0 0 0 0 0 0 0 0 0 0 0 0 0 0 0 0 0 0 1 1 1 1 1 0 0 0 0 0 0 0 0 0 0 0 0 0 0 0 0 0 0 0 0 0 0 0 0
0 0 0 0 0 0 0 0 0 0 0 0 0 0 0 0 0 0 0 0 1 1 1 1 1 0 0 0 0 0 0 0 0 0 0 0 0 0 0 0 0 0 0 0 0 0 0 0 0
0 0 0 0 0 0 0 0 0 0 0 0 0 0 0 0 0 0 0 0 1 1 1 1 1 1 0 0 0 0 0 0 0 0 0 0 0 0 0 0 0 0 0 0 0 0 0 0 0
0 0 0 0 0 0 0 0 0 0 0 0 0 0 0 0 0 0 0 0 1 1 1 1 1 1 0 0 0 0 0 0 0 0 0 0 0 0 0 0 0 0 0 0 0 0 0 0 0
0 0 0 0 0 0 0 0 0 0 0 0 0 0 0 0 0 0 0 0 1 1 1 1 1 1 1 0 0 0 0 0 0 0 0 0 0 0 0 0 0 0 0 0 0 0 0 0 0
0 0 0 0 0 0 0 0 0 0 0 0 0 0 1 0 0 0 0 0 1 1 1 1 1 1 1 0 0 0 0 0 0 0 0 0 0 0 0 0 0 0 0 0 0 0 0 0 0
0 0 0 0 0 0 0 0 0 0 0 0 0 0 1 1 0 0 0 0 1 1 1 1 1 1 0 0 0 0 0 0 0 0 0 0 0 0 0 0 0 0 0 0 0 0 0 0 0
0 0 0 0 0 0 0 0 0 0 0 0 0 1 1 1 0 0 0 0 1 1 1 1 1 1 0 0 0 0 0 0 0 0 0 0 0 0 0 0 0 0 0 0 0 0 0 0 0
0 0 0 0 0 0 0 0 0 0 0 0 0 1 1 0 0 0 0 0 1 1 1 1 1 1 0 0 0 0 0 0 0 0 0 0 0 0 0 0 0 0 0 0 0 0 0 0 0
0 0 0 0 0 0 0 0 0 0 0 0 0 1 1 0 0 0 0 1 1 1 1 1 1 1 0 0 0 0 0 0 0 0 0 0 0 0 0 0 0 0 0 0 0 0 0 0 0
0 0 0 0 0 0 0 0 0 0 0 0 0 1 1 0 0 1 1 1 1 1 1 1 1 1 1 1 0 0 0 0 0 0 0 0 0 0 0 0 0 0 0 0 0 0 0 0 0
0 0 0 0 0 0 0 0 0 0 0 0 0 0 1 1 1 1 1 1 1 1 1 1 1 1 1 1 1 0 0 0 0 0 0 0 0 0 0 0 0 0 0 0 0 0 0 0 0
0 0 0 0 0 0 0 0 0 0 0 0 0 0 0 1 1 1 1 1 1 1 1 1 1 1 1 1 1 1 0 0 0 0 0 0 0 0 0 0 0 0 0 0 0 0 0 0 0
0 0 0 0 0 0 0 0 0 0 0 0 0 0 1 1 1 1 1 1 1 1 1 1 1 1 1 1 1 1 1 1 1 1 1 1 0 1 1 1 1 0 0 0 0 0 0 0 0
0 0 0 0 0 0 0 0 0 0 0 0 0 1 1 1 1 1 1 1 1 1 1 1 1 1 1 1 1 1 1 1 1 1 1 1 1 1 1 1 1 1 1 0 0 0 0 0 0
0 0 0 0 0 0 0 0 0 0 0 0 0 1 1 1 1 1 1 1 1 2 2 2 1 1 1 1 1 1 1 1 1 1 1 1 1 1 1 1 1 1 1 1 1 1 1 1 1
0 0 0 0 0 0 0 0 0 0 0 0 1 1 1 1 1 1 1 1 2 2 2 2 2 2 2 1 1 1 1 1 1 1 1 1 1 1 1 1 1 1 1 1 1 1 1 1 1
0 0 0 0 0 0 0 0 0 0 0 0 1 1 1 1 1 1 1 1 2 2 2 2 2 2 2 2 2 1 1 1 1 1 1 1 1 1 1 1 1 1 1 1 1 1 1 1 1
0 0 0 0 0 0 0 0 0 0 0 0 1 1 1 1 1 1 1 1 2 2 2 2 2 2 2 2 2 1 1 1 1 1 1 1 1 1 1 1 1 1 1 1 1 1 1 1 1
0 0 0 0 0 0 0 0 0 0 0 0 1 1 1 1 1 1 1 1 1 2 2 2 2 2 2 2 2 1 1 1 1 1 1 1 1 1 1 1 1 1 1 1 1 1 1 1 1
0 0 0 0 0 0 0 0 0 0 0 0 0 1 1 1 1 1 1 1 1 1 1 2 2 2 2 2 2 2 1 1 1 1 1 1 1 1 1 1 1 1 1 1 1 1 1 1 1
0 0 0 0 0 0 0 0 0 0 0 0 0 1 1 1 1 1 1 1 1 1 1 2 2 2 2 2 2 2 2 1 1 1 1 1 1 1 1 1 1 1 1 1 1 1 1 1 1
0 0 0 0 0 0 0 0 0 0 0 0 1 1 1 1 1 1 1 1 1 1 1 1 2 2 2 2 2 2 2 2 1 1 1 1 1 1 1 1 1 1 1 1 1 1 1 1 1
0 0 0 0 0 0 0 0 0 0 0 1 1 1 1 1 1 1 1 1 1 1 1 1 1 2 2 2 1 1 1 1 1 1 1 1 1 1 1 1 1 1 1 1 1 1 1 1 1
0 0 0 0 0 0 0 0 0 0 1 1 1 1 1 1 1 1 1 1 1 1 1 1 1 1 2 2 1 1 1 1 1 1 1 1 1 1 1 1 1 1 1 1 1 1 1 1 1
0 0 0 0 0 0 0 0 0 1 1 1 1 1 1 1 1 1 1 1 1 1 1 1 1 1 1 1 1 1 1 1 1 1 1 1 1 1 1 1 1 1 1 1 1 1 1 1 1
0 0 0 0 0 0 0 0 0 1 1 1 1 1 1 1 1 1 1 1 1 1 1 1 1 1 1 1 1 1 1 1 1 1 1 1 1 1 1 1 1 1 1 1 1 1 1 1 1
0 0 0 0 0 0 0 0 0 1 1 1 1 1 1 1 1 1 1 1 1 1 1 1 1 1 1 1 1 1 1 1 1 1 1 1 1 1 1 1 1 1 1 1 1 1 1 1 1
0 0 0 0 0 0 0 0 0 1 1 1 1 1 1 1 1 1 1 1 1 1 1 1 1 1 1 1 1 1 1 1 1 1 1 1 1 1 1 1 1 1 1 1 1 1 1 1 1
Wind_Speed
8 10 10 8 7 6 4 2 7 9 9 10 9 8 13 14 10 9 10 14 19 19 16 14 13 12 11 11 10 10 10 9 9 9 9 10 10 10 10 10 10 10 10 10 10 9 10 10 10
9 12 10 7 6 3 3 4 6 8 9 7 7 8 12 13 13 12 11 13 19 19 15 14 13 12 12 11 11 10 10 10 9 9 10 10 10 10 9 9 9 9 9 9 9 9 9 9 8
12 16 9 8 8 2 2 3 4 6 6 5 6 9 10 10 11 10 11 13 17 18 16 15 14 12 12 11 11 10 10 10 9 9 9 9 9 9 9 9 8 8 8 8 9 8 8 8 7
9 9 8 8 8 2 2 3 4 3 5 5 6 9 10 9 10 12 13 13 17 19 17 16 14 13 12 11 11 11 10 10 9 9 9 9 9 9 8 8 8 8 8 8 8 8 7 6 6
11 9 11 10 8 4 1 4 2 2 3 5 7 10 10 11 14 14 12 12 15 18 17 16 15 14 12 12 11 11 10 9 9 9 9 8 8 8 8 8 8 7 7 7 7 7 6 6 5
9 8 9 9 5 5 1 3 1 2 3 4 7 10 9 11 12 12 12 11 15 18 18 15 15 15 13 12 11 10 10 9 8 8 8 8 8 7 7 8 8 7 6 7 7 6 5 5 4
10 10 12 11 8 5 2 2 2 2 2 3 5 8 9 10 9 10 11 11 14 17 17 15 14 13 13 12 11 10 10 9 8 7 7 7 7 7 7 7 7 6 6 6 6 5 4 4 4
10 10 13 11 9 5 1 2 2 2 2 3 2 5 10 12 10 10 10 11 13 14 14 14 14 13 12 11 12 11 10 9 8 7 7 7 7 7 8 7 6 5 5 5 5 4 4 4 4
14 11 11 12 10 4 1 1 1 1 2 3 5 9 11 15 12 10 10 11 11 11 11 11 12 12 11 12 12 12 11 9 8 7 7 6 6 7 6 7 8 6 5 5 5 5 5 5 6
12 11 13 12 12 9 4 2 2 2 1 3 6 11 12 14 12 11 11 11 12 11 10 9 10 9 9 9 9 7 7 7 6 5 5 5 3 3 6 8 8 7 6 6 6 6 6 6 4
14 13 13 13 11 11 7 4 3 3 2 1 7 11 11 11 11 10 9 9 10 9 9 9 8 7 7 6 6 4 4 5 5 4 4 3 2 3 4 4 5 5 6 4 5 5 4 3 2
16 15 14 12 10 9 9 6 5 4 2 1 7 12 11 11 9 9 9 10 10 9 9 9 9 7 6 5 4 4 3 4 4 4 3 2 1 2 3 2 3 3 3 3 3 3 3 2 2
16 15 13 11 10 9 9 7 5 4 2 3 7 9 9 9 8 8 9 10 10 9 9 9 8 7 5 4 3 4 4 4 4 4 3 2 2 1 2 1 1 1 1 2 2 2 2 1 1
14 13 12 12 12 10 10 8 7 6 4 5 8 8 8 8 8 8 7 9 10 9 8 8 8 8 6 4 3 3 3 4 4 4 4 3 1 1 1 1 1 1 1 1 1 1 1 1 1
14 15 13 13 14 12 10 10 8 7 6 6 8 7 7 7 7 8 8 7 9 9 8 8 8 8 6 6 5 4 3 4 3 4 4 3 2 1 1 1 1 1 1 1 0 1 1 1 1
15 14 14 14 14 12 12 11 8 7 7 7 8 7 7 6 6 7 8 7 8 9 8 7 8 8 6 5 4 3 3 3 3 3 4 3 3 2 1 1 1 1 1 1 1 1 1 0 0
15 13 14 13 12 10 11 9 7 7 8 7 7 7 7 6 6 7 9 8 8 8 8 6 6 7 7 5 3 2 2 2 2 2 3 3 3 3 2 1 1 1 1 1 1 1 1 1 1
12 13 14 13 10 11 10 8 8 7 8 8 7 8 8 8 6 7 8 8 8 8 8 7 6 6 5 4 2 2 2 2 2 2 3 3 3 3 2 2 2 1 0 1 1 1 1 1 1
15 14 13 10 10 9 9 10 9 7 7 8 9 10 9 9 9 7 8 9 9 8 7 7 6 6 5 4 4 3 3 2 2 2 3 3 2 3 2 2 2 1 1 1 2 1 2 2 1
17 16 15 11 10 9 10 11 8 7 8 7 8 9 10 10 10 8 7 8 9 8 8 7 6 5 4 3 2 2 2 2 2 2 3 3 3 3 3 2 2 2 2 2 2 2 1 2 1
17 16 14 13 11 10 11 11 7 7 7 6 6 7 8 10 10 9 7 6 7 8 7 6 6 5 4 3 2 2 2 2 2 3 3 3 3 3 2 3 2 2 2 2 2 2 2 2 1
15 14 14 15 12 11 11 9 9 9 8 6 6 7 7 9 9 9 9 7 7 7 7 5 5 5 4 3 3 4 3 3 3 3 3 4 3 3 3 3 3 2 2 2 3 3 2 2 2
14 13 14 15 14 14 13 11 7 7 8 8 8 7 7 9 9 9 9 8 7 7 7 6 5 4 4 3 2 2 2 2 1 2 2 3 3 4 4 3 3 2 2 2 2 2 2 1 2
12 13 14 13 12 15 14 12 9 8 10 9 10 9 7 8 9 9 8 9 7 6 6 7 6 4 4 4 3 2 2 2 2 2 2 3 3 3 3 3 3 2 2 1 1 1 2 1 2
12 11 9 10 10 12 12 12 5 5 8 9 10 9 7 7 8 8 8 9 8 8 6 6 6 5 4 4 3 3 2 2 2 2 2 2 2 2 2 2 2 2 2 2 2 2 2 2 2
13 14 11 10 10 10 10 9 4 4 5 7 8 9 7 6 7 7 8 8 7 7 6 6 6 5 5 4 4 3 3 2 2 2 1 2 1 2 3 3 3 2 2 3 2 2 3 2 3
14 13 13 13 14 12 8 7 7 4 5 7 10 10 7 6 5 6 7 7 7 7 6 5 6 5 4 4 3 4 4 3 2 2 2 2 1 2 3 3 3 3 2 2 2 2 2 2 2
15 12 9 11 11 12 11 9 6 10 9 8 8 8 8 7 6 5 5 5 5 5 5 4 4 4 3 3 3 3 3 3 3 3 3 2 2 1 2 3 3 2 2 2 2 2 2 2 2
12 13 11 10 10 11 10 3 3 6 7 8 7 6 7 6 6 5 5 5 4 4 4 4 4 4 3 3 3 2 3 4 3 3 3 3 2 2 2 2 3 3 2 2 2 2 2 2 3
11 12 11 9 10 11 9 2 4 5 6 8 8 6 7 7 6 5 5 5 4 5 4 3 3 3 3 2 2 2 2 3 3 3 2 3 2 3 2 2 3 3 3 2 3 3 2 2 3
Wind_Direction
218 230 232 247 246 250 281 30 58 65 63 57 49 51 56 54 56 86 105 106 111 117 123 122 119 119 117 116 113 108 105 102 99 95 93 93 96 94 92 97 97 98 99 99 98 102 103 102 107
247 244 239 247 257 272 322 36 50 66 66 71 66 64 72 70 79 97 106 115 118 120 126 124 124 122 121 119 117 113 110 107 106 101 98 97 99 97 94 96 98 101 103 104 104 102 106 107 110
259 260 262 251 253 260 345 28 53 67 82 75 75 63 62 75 86 103 120 128 120 121 121 123 128 125 124 122 121 118 114 111 110 106 102 100 101 98 95 95 96 100 105 106 107 105 105 110 115
257 246 239 260 274 297 92 59 34 47 84 85 83 82 75 75 98 113 131 130 123 121 122 127 130 128 127 126 124 122 119 115 113 109 105 102 102 100 96 95 94 96 102 106 108 109 109 115 123
243 258 259 268 279 298 112 92 100 55 69 76 82 94 88 88 104 122 133 129 123 122 124 132 133 131 130 130 129 128 124 120 117 115 110 106 105 103 100 98 99 98 102 107 109 113 116 123 135
260 263 271 278 285 293 344 76 22 48 57 76 94 99 102 109 119 131 133 132 123 123 126 133 137 136 135 135 134 133 130 127 124 121 118 116 115 113 109 105 105 103 102 104 104 112 126 131 147
264 280 281 283 292 292 327 50 13 21 46 48 83 113 120 120 126 133 135 132 125 126 131 142 144 144 143 140 140 139 137 137 137 135 134 132 130 128 122 113 111 110 113 115 117 120 133 145 163
262 276 283 283 278 278 350 41 24 12 33 54 48 119 135 132 145 145 139 131 125 126 135 145 150 151 152 149 150 149 148 149 153 153 155 151 149 150 145 131 127 130 136 138 140 149 157 168 183
259 264 271 275 279 287 75 83 40 86 99 71 60 86 125 139 151 153 143 135 129 128 135 144 146 152 156 152 154 157 158 161 164 168 174 175 177 165 158 139 146 152 158 161 167 176 181 190 204
246 254 267 279 294 310 318 295 256 246 168 125 104 108 132 146 156 160 156 147 140 139 136 141 143 148 150 146 148 163 164 163 180 168 175 196 186 151 139 145 159 169 175 185 195 200 203 212 201
249 252 264 273 287 294 299 296 298 269 263 181 142 138 145 151 160 165 153 142 138 139 139 140 133 138 141 135 149 157 157 156 178 168 178 181 162 142 139 153 160 176 184 199 187 200 213 211 193
256 254 255 265 277 283 289 290 288 286 272 190 141 141 153 164 168 164 152 144 146 149 148 137 137 139 135 133 146 152 151 157 159 156 183 175 178 160 146 153 170 180 184 191 185 200 201 209 213
256 260 263 264 266 272 276 281 277 271 262 145 138 150 163 163 165 154 145 149 149 154 151 142 140 133 127 129 153 151 158 158 151 157 178 186 183 173 151 158 174 201 172 185 202 179 178 192 214
264 264 264 268 266 259 259 256 245 238 233 173 159 166 167 164 163 148 146 147 149 149 146 136 137 134 137 142 156 157 166 158 159 160 171 189 168 150 147 171 184 195 196 215 191 176 168 184 200
269 269 262 253 250 250 251 245 228 216 204 188 174 173 169 164 157 147 150 147 140 141 136 135 143 141 148 158 173 172 175 162 158 154 159 166 167 177 173 181 183 203 215 216 175 230 226 197 194
263 262 260 255 247 240 244 245 219 204 204 194 185 176 162 152 149 143 140 139 139 140 136 149 156 148 152 163 176 176 166 156 153 151 147 156 178 194 187 187 201 214 211 190 179 230 250 252 216
248 243 251 254 244 244 244 246 222 204 193 201 186 170 160 155 149 145 145 145 142 138 141 150 146 150 159 165 170 169 144 155 154 143 148 164 181 189 178 188 209 230 203 199 231 182 225 238 246
248 246 247 250 243 242 244 238 223 214 200 199 187 169 167 163 158 151 143 142 139 136 143 148 143 144 151 151 157 155 155 165 148 143 151 162 178 194 186 184 194 225 194 253 265 268 228 233 241
259 262 263 259 255 249 245 245 225 210 216 201 185 172 170 163 156 146 144 144 137 134 139 146 149 149 152 158 171 170 178 179 165 167 159 161 184 197 190 198 181 186 171 228 272 261 256 246 257
254 258 264 260 250 244 240 244 231 213 215 205 178 167 168 159 149 138 134 135 135 137 144 145 145 149 161 157 168 167 171 181 178 166 159 174 195 205 192 185 197 181 180 210 238 246 253 252 226
251 255 260 263 265 249 241 237 227 229 215 194 176 160 153 153 150 142 142 141 142 137 141 149 145 148 152 143 164 157 149 176 173 167 170 190 197 196 198 189 202 198 186 197 220 231 232 250 246
251 254 264 264 264 261 245 242 215 209 204 198 181 162 157 150 150 150 147 147 143 136 137 128 138 143 147 156 182 178 176 183 182 173 177 184 189 190 196 200 200 208 193 191 208 211 238 233 255
257 267 264 259 261 263 253 245 224 202 198 193 179 164 159 155 154 157 154 154 152 144 145 139 132 140 145 155 176 179 181 168 157 154 161 179 188 198 199 190 201 198 205 201 218 203 218 229 250
256 265 265 256 253 251 249 248 226 205 193 179 169 162 159 154 155 150 150 151 147 143 148 144 144 146 152 157 167 181 170 146 147 155 168 191 185 188 198 187 188 184 194 194 232 226 210 244 266
241 250 251 242 238 247 249 249 221 201 181 170 162 154 154 151 148 149 150 147 148 149 154 150 152 152 154 168 173 178 174 166 165 178 180 187 181 168 174 175 169 181 191 192 208 209 218 233 259
230 235 244 252 250 256 246 241 202 176 153 150 143 139 147 149 143 139 139 140 152 151 153 153 152 154 162 179 191 182 182 191 196 198 193 200 201 174 167 170 169 192 202 204 204 210 220 226 241
239 238 247 259 267 265 244 210 193 153 140 140 136 134 133 130 130 133 133 135 143 142 146 148 151 157 167 177 188 185 195 201 197 199 209 213 216 188 165 175 185 196 203 215 210 211 223 228 235
243 245 252 247 255 262 257 242 188 167 154 130 125 133 128 124 119 112 110 109 122 131 134 131 139 153 161 172 195 199 196 202 204 206 209 211 219 203 173 181 190 197 204 215 222 227 222 217 235
236 237 246 257 256 262 266 273 57 139 147 134 128 121 117 118 104 94 91 99 103 107 127 135 138 147 165 180 191 197 203 207 213 213 210 214 216 200 205 190 190 196 206 209 216 231 220 216 231
244 244 243 251 254 261 268 258 77 116 138 128 126 125 117 111 107 103 91 90 92 88 82 79 119 147 157 168 184 188 194 199 209 211 213 210 209 203 210 204 203 206 200 203 211 235 230 222 226